| time (UTC) | temp F | wind direction | speed knots | gust knots | rain 1hr in | rain 24hr in | rain mn in | humidity % | barometer mb |
| 20260505151540 | 75 | 200 | 2.6 | 13.0 | 0.00 | 0.03 | 0.03 | 45 | 1005.8 |
| 20260505124547 | 57 | 212 | 1.7 | 7.8 | 0.03 | 0.03 | 0.03 | 81 | 1006.6 |
| 20260505123038 | 56 | 207 | 2.6 | 7.8 | 0.03 | 0.03 | 0.03 | 80 | 1006.7 |
| 20260505121537 | 60 | 171 | 1.7 | 10.4 | 0.02 | 0.02 | 0.02 | 73 | 1006.7 |
| 20260505120054 | 61 | 244 | 2.6 | 7.8 | 0.00 | 0.00 | 0.00 | 64 | 1006.9 |
| 20260505114540 | 60 | 193 | 2.6 | 10.4 | 0.00 | 0.00 | 0.00 | 66 | 1006.7 |
| 20260505113040 | 59 | 275 | 1.7 | 5.2 | 0.00 | 0.00 | 0.00 | 68 | 1006.8 |
| 20260505111534 | 58 | 261 | 1.7 | 6.1 | 0.00 | 0.00 | 0.00 | 68 | 1006.8 |
| 20260505101536 | 55 | 208 | 1.7 | 4.3 | 0.00 | 0.00 | 0.00 | 71 | 1006.0 |
| 20260505100043 | 55 | 225 | 1.7 | 4.3 | 0.00 | 0.00 | 0.00 | 69 | 1005.7 |
| 20260505094538 | 56 | 225 | 1.7 | 5.2 | 0.00 | 0.00 | 0.00 | 69 | 1005.6 |
| 20260505093042 | 56 | 235 | 1.7 | 6.1 | 0.00 | 0.00 | 0.00 | 69 | 1005.2 |
| 20260505091541 | 55 | 193 | 1.7 | 6.1 | 0.00 | 0.00 | 0.00 | 69 | 1005.4 |
| 20260505090043 | 55 | 203 | 1.7 | 6.1 | 0.00 | 0.00 | 0.00 | 70 | 1005.3 |
| 20260505084547 | 54 | 246 | 1.7 | 5.2 | 0.00 | 0.00 | 0.00 | 72 | 1005.2 |
| 20260505083047 | 55 | 221 | 0.9 | 4.3 | 0.00 | 0.00 | 0.00 | 73 | 1005.2 |
| 20260505081533 | 55 | 221 | 1.7 | 4.3 | 0.00 | 0.00 | 0.00 | 73 | 1005.5 |
| 20260505080042 | 57 | 198 | 1.7 | 6.1 | 0.00 | 0.00 | 0.00 | 65 | 1005.7 |
| 20260505074540 | 58 | 215 | 1.7 | 7.8 | 0.00 | 0.00 | 0.00 | 63 | 1005.6 |
| 20260505073040 | 58 | 0 | 1.7 | 7.0 | 0.00 | 0.00 | 0.00 | 61 | 1005.6 |
| 20260505071536 | 58 | 234 | 1.7 | 7.8 | 0.00 | 0.00 | 0.00 | 60 | 1005.5 |
| 20260505070047 | 58 | 232 | 2.6 | 8.7 | 0.00 | 0.00 | 0.00 | 59 | 1005.6 |
| 20260505064548 | 58 | 221 | 2.6 | 9.6 | 0.00 | 0.00 | 0.00 | 59 | 1005.6 |
| 20260505063040 | 57 | 242 | 2.6 | 8.7 | 0.00 | 0.00 | 0.00 | 60 | 1005.6 |
| 20260505061538 | 57 | 202 | 1.7 | 7.8 | 0.00 | 0.00 | 0.00 | 60 | 1005.6 |
| 20260505060045 | 57 | 226 | 1.7 | 7.8 | 0.00 | 0.00 | 0.00 | 60 | 1005.6 |
| 20260505054545 | 56 | 202 | 1.7 | 6.1 | 0.00 | 0.00 | 0.00 | 60 | 1005.5 |
| 20260505053107 | 56 | 205 | 1.7 | 5.2 | 0.00 | 0.00 | 0.00 | 59 | 1005.8 |
| 20260505051535 | 57 | 219 | 1.7 | 9.6 | 0.00 | 0.00 | 0.00 | 58 | 1006.0 |
| 20260505041543 | 58 | 239 | 1.7 | 7.8 | 0.00 | 0.00 | 0.00 | 57 | 1005.8 |
| 20260505040040 | 58 | 148 | 1.7 | 8.7 | 0.00 | 0.00 | 0.00 | 56 | 1005.7 |
| 20260505034545 | 59 | 230 | 1.7 | 7.0 | 0.00 | 0.00 | 0.00 | 55 | 1005.6 |
| 20260505033047 | 59 | 198 | 1.7 | 9.6 | 0.00 | 0.00 | 0.00 | 54 | 1005.4 |
| 20260505031541 | 59 | 229 | 2.6 | 8.7 | 0.00 | 0.00 | 0.00 | 54 | 1005.7 |
| 20260505030040 | 60 | 184 | 2.6 | 8.7 | 0.00 | 0.00 | 0.00 | 52 | 1005.7 |
| 20260505024535 | 60 | 160 | 2.6 | 7.8 | 0.00 | 0.00 | 0.00 | 53 | 1005.6 |
| 20260505023035 | 60 | 230 | 2.6 | 8.7 | 0.00 | 0.00 | 0.00 | 52 | 1005.6 |
| 20260505021542 | 60 | 226 | 2.6 | 9.6 | 0.00 | 0.00 | 0.00 | 51 | 1005.9 |
| 20260505020040 | 61 | 202 | 2.6 | 7.8 | 0.00 | 0.00 | 0.00 | 51 | 1005.8 |
| 20260505014539 | 61 | 201 | 1.7 | 10.4 | 0.00 | 0.00 | 0.00 | 50 | 1005.7 |
| 20260505013045 | 61 | 250 | 2.6 | 8.7 | 0.00 | 0.00 | 0.00 | 50 | 1005.6 |
| 20260505011600 | 61 | 225 | 1.7 | 6.1 | 0.00 | 0.00 | 0.00 | 50 | 1005.7 |
| 20260505010040 | 61 | 200 | 1.7 | 3.5 | 0.00 | 0.00 | 0.00 | 49 | 1005.5 |
| 20260505004541 | 61 | 185 | 0.9 | 6.1 | 0.00 | 0.00 | 0.00 | 49 | 1005.3 |
| 20260505003036 | 61 | 212 | 0.9 | 3.5 | 0.00 | 0.00 | 0.00 | 48 | 1005.3 |
| 20260505001549 | 61 | 221 | 0.9 | 2.6 | 0.00 | 0.00 | 0.00 | 48 | 1005.3 |
| 20260505000058 | 63 | 209 | 0.9 | 4.3 | 0.00 | 0.00 | 0.00 | 46 | 1005.1 |
| 20260504234541 | 63 | 207 | 0.9 | 3.5 | 0.00 | 0.00 | 0.00 | 44 | 1005.0 |
| 20260504233055 | 64 | 217 | 1.7 | 5.2 | 0.00 | 0.00 | 0.00 | 42 | 1004.7 |
| 20260504231536 | 65 | 299 | 1.7 | 8.7 | 0.00 | 0.00 | 0.00 | 42 | 1004.7 |
| 20260504230044 | 66 | 205 | 1.7 | 7.8 | 0.00 | 0.00 | 0.00 | 40 | 1004.8 |
| 20260504224544 | 67 | 174 | 1.7 | 9.6 | 0.00 | 0.00 | 0.00 | 38 | 1004.6 |
| 20260504223043 | 68 | 269 | 2.6 | 7.0 | 0.00 | 0.00 | 0.00 | 37 | 1004.7 |
| 20260504221542 | 69 | 219 | 2.6 | 7.0 | 0.00 | 0.00 | 0.00 | 37 | 1004.6 |
| 20260504220039 | 70 | 198 | 1.7 | 6.1 | 0.00 | 0.00 | 0.00 | 36 | 1004.6 |
| 20260504214544 | 70 | 193 | 2.6 | 8.7 | 0.00 | 0.00 | 0.00 | 36 | 1004.8 |
| 20260504213037 | 70 | 212 | 2.6 | 13.0 | 0.00 | 0.00 | 0.00 | 35 | 1004.7 |
| 20260504211543 | 70 | 255 | 2.6 | 11.3 | 0.00 | 0.00 | 0.00 | 36 | 1004.7 |
| 20260504210044 | 71 | 218 | 3.5 | 11.3 | 0.00 | 0.00 | 0.00 | 35 | 1004.9 |
| 20260504204538 | 71 | 193 | 2.6 | 14.8 | 0.00 | 0.00 | 0.00 | 37 | 1004.9 |
| 20260504203048 | 70 | 234 | 3.5 | 9.6 | 0.00 | 0.00 | 0.00 | 34 | 1005.1 |
| 20260504201545 | 71 | 235 | 3.5 | 13.9 | 0.00 | 0.00 | 0.00 | 36 | 1005.6 |
| 20260504200057 | 71 | 211 | 2.6 | 7.8 | 0.00 | 0.00 | 0.00 | 36 | 1005.5 |
| 20260504194558 | 70 | 73 | 2.6 | 11.3 | 0.00 | 0.00 | 0.00 | 36 | 1005.7 |
| 20260504193038 | 70 | 214 | 2.6 | 8.7 | 0.00 | 0.00 | 0.00 | 36 | 1005.7 |
| 20260504191542 | 69 | 294 | 3.5 | 11.3 | 0.00 | 0.00 | 0.00 | 36 | 1005.8 |
| 20260504190037 | 70 | 229 | 3.5 | 10.4 | 0.00 | 0.00 | 0.00 | 37 | 1005.8 |
| 20260504184542 | 70 | 171 | 2.6 | 10.4 | 0.00 | 0.00 | 0.00 | 37 | 1005.9 |
| 20260504183040 | 69 | 153 | 2.6 | 8.7 | 0.00 | 0.00 | 0.00 | 44 | 1006.0 |
| 20260504181539 | 66 | 248 | 3.5 | 10.4 | 0.00 | 0.00 | 0.00 | 40 | 1006.4 |
| 20260504180036 | 66 | 214 | 3.5 | 11.3 | 0.00 | 0.00 | 0.00 | 42 | 1006.2 |
| 20260504174542 | 67 | 207 | 4.3 | 13.9 | 0.00 | 0.00 | 0.00 | 40 | 1006.4 |
| 20260504173041 | 68 | 230 | 2.6 | 9.6 | 0.00 | 0.00 | 0.00 | 44 | 1006.4 |
| 20260504171547 | 67 | 301 | 2.6 | 10.4 | 0.00 | 0.00 | 0.00 | 41 | 1006.7 |